Miscellaneous Local Product
Issued by NWS North Platte, NE

Home | Current Version | Previous Version | Graphics & Text | Print | Product List | Glossary On
Versions: 1 2 3 4 5 6 7 8 9 10 11 12 13 14 15 16 17 18 19 20 21 22 23 24 25 26 27 28 29 30 31 32 33 34 35 36 37 38 39 40 41 42 43 44 45 46 47 48 49 50
000
AXUS43 KLBF 300910
MISLBF


WESTERN AND NORTH CENTRAL NEBRASKA HOURLY WEATHER ROUNDUP
NATIONAL WEATHER SERVICE NORTH PLATTE NE
400 AM CDT SUN AUG 30 2015

NOTE: "FAIR" INDICATES FEW OR NO CLOUDS BELOW 12,000 FEET WITH NO
SIGNIFICANT WEATHER AND/OR OBSTRUCTIONS TO VISIBILITY.

NOTE: STATIONS NOT REPORTING VARIABLES SUCH AS SKY/WEATHER OR
PRESSURE ARE PROVIDED BY THE NEBRASKA DEPARTMENT OF
ROADS...RAWS...AND APRS NETWORKS...AND ARE NOT UNDER
NATIONAL WEATHER SERVICE QUALITY CONTROL.

...OBSERVATIONS IN AND NEAR THE EASTERN PANHANDLE OF NEBRASKA...

CITY           SKY/WX    TMP DP  RH WIND       PRES   REMARKS
PINE RIDGE     PTCLDY    71  44  37 SW10G22   29.94S
CHADRON        CLEAR     73  42  32 SW13G23   29.91S
ALLIANCE       PTCLDY    60  44  55 S5        30.01S
SIDNEY         PTCLDY    62  42  47 S12       30.06F
CRESCENT LAKE    N/A     59  50  71 S6          N/A
BIG SPRINGS      N/A     67  48  49 SW8         N/A
$$

...OBSERVATIONS IN NORTH CENTRAL NEBRASKA...

CITY           SKY/WX    TMP DP  RH WIND       PRES   REMARKS
VALENTINE      CLEAR     68  56  65 S17       29.95F
THEDFORD       CLEAR     65  57  73 S12       30.01F
AINSWORTH      CLEAR     65  59  82 S10       29.98F
O`NEILL        PTCLDY    63  62  96 S8        29.99F
ORD            CLEAR     57  56  96 E3        30.01S FOG
BROKEN BOW     CLEAR     63  58  83 S6        30.03S
SPRINGVIEW       N/A     64  60  87 CALM        N/A
SARGENT          N/A     59  58  95 CALM        N/A
CHAMBERS         N/A     62  60  94 S3          N/A
EWING            N/A     62  58  88 S3          N/A
$$

...OBSERVATIONS IN SOUTHWEST NEBRASKA AND FAR NORTHEAST COLORADO...

CITY           SKY/WX    TMP DP  RH WIND       PRES   REMARKS
WRAY           FAIR      67  45  44 SW9       30.07F
HOLYOKE        FAIR      59  46  63 S6        30.06F
IMPERIAL       CLEAR     60  47  61 SW8       30.05S
OGALLALA       CLEAR     61  49  64 W5        30.04S
NORTH PLATTE   CLEAR     63  53  70 S8        30.03F
MCCOOK         CLEAR     64  51  62 SW3       30.04S
LEXINGTON      CLEAR     61  59  91 SE5       30.04F
PAXTON           N/A     60  53  79 CALM        N/A
BRADY            N/A     58  54  87 CALM        N/A
CALLAWAY         N/A     59  58  95 S6          N/A
$$

...OBSERVATIONS IN CENTRAL LINCOLN COUNTY AREA...

CITY           SKY/WX    TMP DP  RH WIND       PRES   REMARKS
N.P. AIRPORT   CLEAR     63  53  70 S8        30.03F
N.P. DOWNTOWN    N/A     66  55  67 CALM        N/A
N.P. SOUTHEAST   N/A     65  53  65 CALM        N/A
$$

...SOME OBSERVATIONS FROM AROUND THE REGION...

CITY           SKY/WX    TMP DP  RH WIND       PRES   REMARKS
DENVER         PTCLDY    69  39  33 S16       30.08F
LARAMIE        PTCLDY    50  34  54 S8        30.22S
CHEYENNE       CLEAR     57  44  62 W7        30.14S
SCOTTSBLUFF    PTCLDY    74  40  29 S18       30.00F
RAPID CITY     CLEAR     66  45  46 CALM      29.87F
PIERRE         CLEAR     70  57  63 S8        29.83F
WINNER         FAIR      72  58  61 S21G26    29.90S
SIOUX FALLS    CLOUDY    62  60  93 S9        29.99S
OMAHA          CLEAR     64  62  93 S5        30.03S
GRAND ISLAND   FOG       63  62  97 S10       30.04R VSB 3/4
KANSAS CITY    CLOUDY    66  60  81 NE5       30.02F
WICHITA        CLEAR     60  58  92 CALM      30.02S
HAYS           MOCLDY    55  48  76 CALM      30.05S VSB 3/4
LIBERAL        CLEAR     59  50  72 W5        30.09S
GOODLAND       MOCLDY    63  48  58 S12       30.10S
$$



USA.gov is the U.S. government's official web portal to all federal, state and local government web resources and services.